Time,TemperatureF,DewpointF,PressureIn,WindDirection,WindDirectionDegrees,WindSpeedMPH,WindSpeedGustMPH,Humidity,HourlyPrecipIn,Conditions,Clouds,dailyrainin,SoftwareType,DateUTC
2013-04-19 00:01:00,28.3,27.3,29.73,NNW,341,6.0,7.0,96,0.00,,,0.00,vanprod-2.3,2013-04-19 05:01:00,
2013-04-19 00:06:00,28.2,27.2,29.73,NNW,334,6.0,7.0,96,0.00,,,0.00,vanprod-2.3,2013-04-19 05:06:00,
2013-04-19 00:11:00,28.2,27.2,29.73,NNW,347,7.0,7.0,96,0.00,,,0.00,vanprod-2.3,2013-04-19 05:11:00,
2013-04-19 00:16:00,28.2,27.2,29.73,NNW,347,3.0,3.0,96,0.00,,,0.00,vanprod-2.3,2013-04-19 05:16:00,
2013-04-19 00:21:00,28.2,27.0,29.73,North,355,6.0,8.0,95,0.00,,,0.00,vanprod-2.3,2013-04-19 05:21:00,
2013-04-19 00:26:00,28.0,26.8,29.73,North,349,7.0,7.0,95,0.00,,,0.00,vanprod-2.3,2013-04-19 05:26:00,
2013-04-19 00:31:00,28.2,27.0,29.72,NNW,337,6.0,6.0,95,0.00,,,0.00,vanprod-2.3,2013-04-19 05:31:00,
2013-04-19 00:36:00,28.0,26.5,29.72,NNW,329,7.0,11.0,94,0.00,,,0.00,vanprod-2.3,2013-04-19 05:36:00,
2013-04-19 00:41:00,28.0,26.5,29.72,NNW,331,6.0,8.0,94,0.00,,,0.00,vanprod-2.3,2013-04-19 05:41:00,
2013-04-19 00:46:00,27.9,26.4,29.72,NNW,334,7.0,7.0,94,0.00,,,0.00,vanprod-2.3,2013-04-19 05:46:00,
2013-04-19 00:51:00,28.0,26.2,29.72,NNE,19,5.0,5.0,93,0.00,,,0.00,vanprod-2.3,2013-04-19 05:51:00,
2013-04-19 00:56:00,28.0,26.2,29.72,North,352,7.0,7.0,93,0.00,,,0.00,vanprod-2.3,2013-04-19 05:56:00,
2013-04-19 01:01:00,27.7,25.9,29.72,NNW,345,6.0,7.0,93,0.00,,,0.00,vanprod-2.3,2013-04-19 06:01:00,
2013-04-19 01:06:00,27.7,25.9,29.72,NNW,338,5.0,5.0,93,0.00,,,0.00,vanprod-2.3,2013-04-19 06:06:00,
2013-04-19 01:11:00,27.6,25.8,29.72,NNW,333,7.0,13.0,93,0.00,,,0.00,vanprod-2.3,2013-04-19 06:11:00,
2013-04-19 01:16:00,27.6,25.6,29.72,NNW,347,6.0,7.0,92,0.00,,,0.00,vanprod-2.3,2013-04-19 06:16:00,
2013-04-19 01:21:00,27.4,25.4,29.71,NNW,347,5.0,8.0,92,0.00,,,0.00,vanprod-2.3,2013-04-19 06:21:00,
2013-04-19 01:26:00,27.3,25.3,29.71,NNW,344,5.0,6.0,92,0.00,,,0.00,vanprod-2.3,2013-04-19 06:26:00,
2013-04-19 01:31:00,27.1,25.1,29.71,NNW,345,6.0,6.0,92,0.00,,,0.00,vanprod-2.3,2013-04-19 06:31:00,
2013-04-19 01:36:00,27.1,25.1,29.71,NNW,338,5.0,6.0,92,0.00,,,0.00,vanprod-2.3,2013-04-19 06:36:00,
2013-04-19 01:41:00,27.1,25.1,29.71,NNW,340,6.0,13.0,92,0.00,,,0.00,vanprod-2.3,2013-04-19 06:41:00,
2013-04-19 01:46:00,27.1,25.1,29.71,North,354,6.0,6.0,92,0.00,,,0.00,vanprod-2.3,2013-04-19 06:46:00,
2013-04-19 01:51:00,27.1,25.1,29.71,NNW,333,6.0,12.0,92,0.00,,,0.00,vanprod-2.3,2013-04-19 06:51:00,
2013-04-19 01:56:00,27.1,25.1,29.71,North,352,6.0,6.0,92,0.00,,,0.00,vanprod-2.3,2013-04-19 06:56:00,
2013-04-19 02:01:00,27.3,25.3,29.71,NNW,339,6.0,6.0,92,0.00,,,0.00,vanprod-2.3,2013-04-19 07:01:00,
2013-04-19 02:06:00,27.0,25.0,29.71,NNW,337,4.0,4.0,92,0.00,,,0.00,vanprod-2.3,2013-04-19 07:06:00,
2013-04-19 02:11:00,27.0,25.0,29.71,NNW,341,4.0,6.0,92,0.00,,,0.00,vanprod-2.3,2013-04-19 07:11:00,
2013-04-19 02:16:00,27.0,25.0,29.70,NW,319,5.0,5.0,92,0.00,,,0.00,vanprod-2.3,2013-04-19 07:16:00,
2013-04-19 02:21:00,26.8,24.8,29.71,NW,320,3.0,3.0,92,0.00,,,0.00,vanprod-2.3,2013-04-19 07:21:00,
2013-04-19 02:26:00,26.7,24.7,29.70,NNW,328,5.0,8.0,92,0.00,,,0.00,vanprod-2.3,2013-04-19 07:26:00,
2013-04-19 02:31:00,26.5,24.2,29.70,NW,326,4.0,4.0,91,0.00,,,0.00,vanprod-2.3,2013-04-19 07:31:00,
2013-04-19 02:36:00,26.4,24.1,29.70,NW,322,4.0,7.0,91,0.00,,,0.00,vanprod-2.3,2013-04-19 07:36:00,
2013-04-19 02:41:00,26.2,23.9,29.70,WNW,297,4.0,6.0,91,0.00,,,0.00,vanprod-2.3,2013-04-19 07:41:00,
2013-04-19 02:46:00,26.1,23.8,29.70,WNW,298,4.0,4.0,91,0.00,,,0.00,vanprod-2.3,2013-04-19 07:46:00,
2013-04-19 02:51:00,25.9,23.6,29.70,NW,318,6.0,10.0,91,0.00,,,0.00,vanprod-2.3,2013-04-19 07:51:00,
2013-04-19 02:56:00,25.9,23.6,29.70,NW,320,4.0,6.0,91,0.00,,,0.00,vanprod-2.3,2013-04-19 07:56:00,
2013-04-19 03:01:00,25.8,23.5,29.70,NW,315,4.0,4.0,91,0.00,,,0.00,vanprod-2.3,2013-04-19 08:01:00,
2013-04-19 03:06:00,25.6,23.3,29.71,NW,309,3.0,4.0,91,0.00,,,0.00,vanprod-2.3,2013-04-19 08:06:00,
2013-04-19 03:11:00,25.6,23.3,29.70,NNW,328,4.0,4.0,91,0.00,,,0.00,vanprod-2.3,2013-04-19 08:11:00,
2013-04-19 03:16:00,25.5,23.2,29.70,NNW,335,6.0,7.0,91,0.00,,,0.00,vanprod-2.3,2013-04-19 08:16:00,
2013-04-19 03:21:00,25.5,23.2,29.70,NNW,336,5.0,5.0,91,0.00,,,0.00,vanprod-2.3,2013-04-19 08:21:00,
2013-04-19 03:26:00,25.3,23.0,29.70,NNW,344,6.0,7.0,91,0.00,,,0.00,vanprod-2.3,2013-04-19 08:26:00,
2013-04-19 03:31:00,25.3,23.0,29.71,North,352,4.0,4.0,91,0.00,,,0.00,vanprod-2.3,2013-04-19 08:31:00,
2013-04-19 03:36:00,25.3,23.0,29.71,NNW,339,6.0,8.0,91,0.00,,,0.00,vanprod-2.3,2013-04-19 08:36:00,
2013-04-19 03:41:00,25.3,23.0,29.71,NNW,338,6.0,7.0,91,0.00,,,0.00,vanprod-2.3,2013-04-19 08:41:00,
2013-04-19 03:46:00,25.3,22.8,29.70,NNW,333,4.0,7.0,90,0.00,,,0.00,vanprod-2.3,2013-04-19 08:46:00,
2013-04-19 03:51:00,25.2,22.7,29.70,NW,316,4.0,4.0,90,0.00,,,0.00,vanprod-2.3,2013-04-19 08:51:00,
2013-04-19 03:56:00,25.3,22.8,29.70,North,356,5.0,5.0,90,0.00,,,0.00,vanprod-2.3,2013-04-19 08:56:00,
2013-04-19 04:01:00,25.3,22.8,29.71,NNW,339,3.0,7.0,90,0.00,,,0.00,vanprod-2.3,2013-04-19 09:01:00,
2013-04-19 04:06:00,25.2,22.7,29.71,WNW,289,4.0,7.0,90,0.00,,,0.00,vanprod-2.3,2013-04-19 09:06:00,
2013-04-19 04:11:00,25.1,22.6,29.71,NNW,337,3.0,3.0,90,0.00,,,0.00,vanprod-2.3,2013-04-19 09:11:00,
2013-04-19 04:16:00,24.9,22.4,29.71,NW,318,5.0,5.0,90,0.00,,,0.00,vanprod-2.3,2013-04-19 09:16:00,
2013-04-19 04:21:00,24.8,22.3,29.71,North,349,3.0,3.0,90,0.00,,,0.00,vanprod-2.3,2013-04-19 09:21:00,
2013-04-19 04:26:00,24.6,22.1,29.71,North,351,3.0,6.0,90,0.00,,,0.00,vanprod-2.3,2013-04-19 09:26:00,
2013-04-19 04:31:00,24.6,22.1,29.71,NW,309,6.0,6.0,90,0.00,,,0.00,vanprod-2.3,2013-04-19 09:31:00,
2013-04-19 04:36:00,24.6,22.1,29.71,NNW,331,4.0,6.0,90,0.00,,,0.00,vanprod-2.3,2013-04-19 09:36:00,
2013-04-19 04:41:00,24.6,21.8,29.71,NW,322,6.0,8.0,89,0.00,,,0.00,vanprod-2.3,2013-04-19 09:41:00,
2013-04-19 04:46:00,24.5,22.0,29.71,NW,306,4.0,8.0,90,0.00,,,0.00,vanprod-2.3,2013-04-19 09:46:00,
2013-04-19 04:51:00,24.5,21.7,29.71,NW,322,4.0,10.0,89,0.00,,,0.00,vanprod-2.3,2013-04-19 09:51:00,
2013-04-19 04:56:00,24.3,21.5,29.71,NW,314,4.0,5.0,89,0.00,,,0.00,vanprod-2.3,2013-04-19 09:56:00,
2013-04-19 05:01:00,24.3,21.5,29.71,NW,322,4.0,7.0,89,0.00,,,0.00,vanprod-2.3,2013-04-19 10:01:00,
2013-04-19 05:06:00,24.3,21.5,29.71,NNW,346,4.0,4.0,89,0.00,,,0.00,vanprod-2.3,2013-04-19 10:06:00,
2013-04-19 05:11:00,24.3,21.8,29.71,NW,308,4.0,4.0,90,0.00,,,0.00,vanprod-2.3,2013-04-19 10:11:00,
2013-04-19 05:16:00,24.5,22.0,29.71,NW,320,3.0,3.0,90,0.00,,,0.00,vanprod-2.3,2013-04-19 10:16:00,
2013-04-19 05:21:00,24.6,22.1,29.71,NNW,341,4.0,6.0,90,0.00,,,0.00,vanprod-2.3,2013-04-19 10:21:00,
2013-04-19 05:26:00,24.8,22.3,29.72,NNW,341,4.0,5.0,90,0.00,,,0.00,vanprod-2.3,2013-04-19 10:26:00,
2013-04-19 05:31:00,24.8,22.3,29.72,NNW,333,3.0,3.0,90,0.00,,,0.00,vanprod-2.3,2013-04-19 10:31:00,
2013-04-19 05:36:00,24.6,22.1,29.71,NNW,348,4.0,4.0,90,0.00,,,0.00,vanprod-2.3,2013-04-19 10:36:00,
2013-04-19 05:41:00,24.8,22.3,29.72,NNW,333,6.0,9.0,90,0.00,,,0.00,vanprod-2.3,2013-04-19 10:41:00,
2013-04-19 05:46:00,24.9,22.4,29.72,North,350,5.0,7.0,90,0.00,,,0.00,vanprod-2.3,2013-04-19 10:46:00,
2013-04-19 05:51:00,25.1,22.3,29.72,NNW,346,5.0,7.0,89,0.00,,,0.00,vanprod-2.3,2013-04-19 10:51:00,
2013-04-19 05:56:00,25.1,22.3,29.72,North,350,4.0,6.0,89,0.00,,,0.00,vanprod-2.3,2013-04-19 10:56:00,
2013-04-19 06:01:00,25.1,22.3,29.72,NNW,340,5.0,7.0,89,0.00,,,0.00,vanprod-2.3,2013-04-19 11:01:00,
2013-04-19 06:06:00,25.1,22.3,29.72,NNW,343,4.0,10.0,89,0.00,,,0.00,vanprod-2.3,2013-04-19 11:06:00,
2013-04-19 06:11:00,24.9,22.1,29.73,NNW,345,3.0,3.0,89,0.00,,,0.00,vanprod-2.3,2013-04-19 11:11:00,
2013-04-19 06:16:00,24.9,22.1,29.73,NNW,335,3.0,3.0,89,0.00,,,0.00,vanprod-2.3,2013-04-19 11:16:00,
2013-04-19 06:21:00,24.8,22.0,29.73,NNW,348,4.0,4.0,89,0.00,,,0.00,vanprod-2.3,2013-04-19 11:21:00,
2013-04-19 06:26:00,24.6,21.6,29.73,NW,308,4.0,4.0,88,0.00,,,0.00,vanprod-2.3,2013-04-19 11:26:00,
2013-04-19 06:31:00,24.3,21.3,29.73,NW,306,4.0,7.0,88,0.00,,,0.00,vanprod-2.3,2013-04-19 11:31:00,
2013-04-19 06:36:00,24.2,21.2,29.73,NW,317,5.0,7.0,88,0.00,,,0.00,vanprod-2.3,2013-04-19 11:36:00,
2013-04-19 06:41:00,24.0,21.0,29.73,NW,311,5.0,5.0,88,0.00,,,0.00,vanprod-2.3,2013-04-19 11:41:00,
2013-04-19 06:46:00,23.9,20.9,29.73,NW,322,5.0,5.0,88,0.00,,,0.00,vanprod-2.3,2013-04-19 11:46:00,
2013-04-19 06:51:00,23.9,20.9,29.74,NW,323,4.0,4.0,88,0.00,,,0.00,vanprod-2.3,2013-04-19 11:51:00,
2013-04-19 06:56:00,23.7,20.7,29.74,NW,317,5.0,5.0,88,0.00,,,0.00,vanprod-2.3,2013-04-19 11:56:00,
2013-04-19 07:01:00,23.7,20.7,29.74,NNW,337,4.0,5.0,88,0.00,,,0.00,vanprod-2.3,2013-04-19 12:01:00,
2013-04-19 07:06:00,23.6,20.6,29.75,NW,308,4.0,4.0,88,0.00,,,0.00,vanprod-2.3,2013-04-19 12:06:00,
2013-04-19 07:11:00,23.6,20.6,29.75,NNW,337,4.0,6.0,88,0.00,,,0.00,vanprod-2.3,2013-04-19 12:11:00,
2013-04-19 07:16:00,23.6,20.6,29.75,NNW,327,3.0,4.0,88,0.00,,,0.00,vanprod-2.3,2013-04-19 12:16:00,
2013-04-19 07:21:00,23.7,20.7,29.75,NW,322,4.0,4.0,88,0.00,,,0.00,vanprod-2.3,2013-04-19 12:21:00,
2013-04-19 07:26:00,23.9,20.9,29.75,WNW,301,5.0,6.0,88,0.00,,,0.00,vanprod-2.3,2013-04-19 12:26:00,
2013-04-19 07:31:00,24.0,21.0,29.75,North,350,5.0,7.0,88,0.00,,,0.00,vanprod-2.3,2013-04-19 12:31:00,
2013-04-19 07:36:00,24.2,21.2,29.75,North,350,4.0,6.0,88,0.00,,,0.00,vanprod-2.3,2013-04-19 12:36:00,
2013-04-19 07:41:00,24.3,21.3,29.75,NNW,330,4.0,4.0,88,0.00,,,0.00,vanprod-2.3,2013-04-19 12:41:00,
2013-04-19 07:46:00,24.3,21.3,29.75,NW,311,4.0,4.0,88,0.00,,,0.00,vanprod-2.3,2013-04-19 12:46:00,
2013-04-19 07:51:00,24.6,21.3,29.75,NNW,343,5.0,6.0,87,0.00,,,0.00,vanprod-2.3,2013-04-19 12:51:00,
2013-04-19 07:56:00,24.8,21.5,29.75,NW,326,5.0,11.0,87,0.00,,,0.00,vanprod-2.3,2013-04-19 12:56:00,
2013-04-19 08:01:00,24.9,21.6,29.76,NNW,341,4.0,8.0,87,0.00,,,0.00,vanprod-2.3,2013-04-19 13:01:00,
2013-04-19 08:06:00,25.2,22.2,29.76,North,10,3.0,6.0,88,0.00,,,0.00,vanprod-2.3,2013-04-19 13:06:00,
2013-04-19 08:11:00,25.3,22.0,29.76,NNW,327,5.0,5.0,87,0.00,,,0.00,vanprod-2.3,2013-04-19 13:11:00,
2013-04-19 08:16:00,25.5,22.2,29.76,North,1,5.0,5.0,87,0.00,,,0.00,vanprod-2.3,2013-04-19 13:16:00,
2013-04-19 08:21:00,25.5,22.2,29.76,NW,318,4.0,5.0,87,0.00,,,0.00,vanprod-2.3,2013-04-19 13:21:00,
2013-04-19 08:26:00,25.6,22.3,29.76,NNW,335,3.0,6.0,87,0.00,,,0.00,vanprod-2.3,2013-04-19 13:26:00,
2013-04-19 08:31:00,25.6,22.0,29.76,WNW,301,4.0,5.0,86,0.00,,,0.00,vanprod-2.3,2013-04-19 13:31:00,
2013-04-19 08:36:00,25.8,22.5,29.76,NW,323,5.0,5.0,87,0.00,,,0.00,vanprod-2.3,2013-04-19 13:36:00,
2013-04-19 08:41:00,25.8,22.2,29.76,NW,325,5.0,5.0,86,0.00,,,0.00,vanprod-2.3,2013-04-19 13:41:00,
2013-04-19 08:46:00,25.9,22.6,29.76,NNW,338,5.0,5.0,87,0.00,,,0.00,vanprod-2.3,2013-04-19 13:46:00,
2013-04-19 08:51:00,26.1,22.8,29.77,NW,326,4.0,4.0,87,0.00,,,0.00,vanprod-2.3,2013-04-19 13:51:00,
2013-04-19 08:56:00,26.2,22.6,29.77,North,354,4.0,4.0,86,0.00,,,0.00,vanprod-2.3,2013-04-19 13:56:00,
2013-04-19 09:01:00,26.4,22.8,29.77,WNW,300,5.0,5.0,86,0.00,,,0.00,vanprod-2.3,2013-04-19 14:01:00,
2013-04-19 09:06:00,26.7,23.1,29.77,NW,317,5.0,8.0,86,0.00,,,0.00,vanprod-2.3,2013-04-19 14:06:00,
2013-04-19 09:11:00,26.8,23.2,29.77,NW,313,4.0,4.0,86,0.00,,,0.00,vanprod-2.3,2013-04-19 14:11:00,
2013-04-19 09:16:00,27.1,23.5,29.77,WNW,296,3.0,3.0,86,0.00,,,0.00,vanprod-2.3,2013-04-19 14:16:00,
2013-04-19 09:21:00,27.4,24.0,29.77,WNW,301,5.0,6.0,87,0.00,,,0.00,vanprod-2.3,2013-04-19 14:21:00,
2013-04-19 09:26:00,27.7,24.1,29.77,NW,321,5.0,5.0,86,0.00,,,0.00,vanprod-2.3,2013-04-19 14:26:00,
2013-04-19 09:31:00,27.9,24.0,29.77,NNW,332,7.0,7.0,85,0.00,,,0.00,vanprod-2.3,2013-04-19 14:31:00,
2013-04-19 09:36:00,28.0,24.1,29.78,NNW,345,8.0,8.0,85,0.00,,,0.00,vanprod-2.3,2013-04-19 14:36:00,
2013-04-19 09:41:00,28.2,24.0,29.78,NNW,334,7.0,12.0,84,0.00,,,0.00,vanprod-2.3,2013-04-19 14:41:00,
2013-04-19 09:46:00,28.2,24.0,29.78,NNW,347,7.0,7.0,84,0.00,,,0.00,vanprod-2.3,2013-04-19 14:46:00,
2013-04-19 09:51:00,28.5,24.3,29.78,NW,305,5.0,5.0,84,0.00,,,0.00,vanprod-2.3,2013-04-19 14:51:00,
2013-04-19 09:56:00,28.6,24.1,29.78,NNW,330,6.0,7.0,83,0.00,,,0.00,vanprod-2.3,2013-04-19 14:56:00,
2013-04-19 10:01:00,28.5,24.3,29.78,North,353,7.0,7.0,84,0.00,,,0.00,vanprod-2.3,2013-04-19 15:01:00,
2013-04-19 10:06:00,28.8,24.9,29.79,NNW,339,5.0,5.0,85,0.00,,,0.00,vanprod-2.3,2013-04-19 15:06:00,
2013-04-19 10:11:00,28.9,25.0,29.79,NNW,345,6.0,6.0,85,0.00,,,0.00,vanprod-2.3,2013-04-19 15:11:00,
2013-04-19 10:16:00,28.9,24.4,29.79,NNW,341,4.0,4.0,83,0.00,,,0.00,vanprod-2.3,2013-04-19 15:16:00,
2013-04-19 10:21:00,28.9,24.4,29.79,North,357,10.0,13.0,83,0.00,,,0.00,vanprod-2.3,2013-04-19 15:21:00,
2013-04-19 10:26:00,28.9,24.7,29.79,NW,316,7.0,8.0,84,0.00,,,0.00,vanprod-2.3,2013-04-19 15:26:00,
2013-04-19 10:31:00,28.9,24.7,29.79,NW,308,5.0,5.0,84,0.00,,,0.00,vanprod-2.3,2013-04-19 15:31:00,
2013-04-19 10:36:00,29.3,25.1,29.79,NNW,346,9.0,9.0,84,0.00,,,0.00,vanprod-2.3,2013-04-19 15:36:00,
2013-04-19 10:41:00,29.6,25.4,29.79,North,353,6.0,10.0,84,0.00,,,0.00,vanprod-2.3,2013-04-19 15:41:00,
2013-04-19 10:46:00,29.6,25.4,29.80,NW,315,5.0,5.0,84,0.00,,,0.00,vanprod-2.3,2013-04-19 15:46:00,
2013-04-19 10:51:00,29.6,24.8,29.80,North,357,11.0,11.0,82,0.00,,,0.00,vanprod-2.3,2013-04-19 15:51:00,
2013-04-19 10:56:00,29.6,25.1,29.80,North,360,8.0,8.0,83,0.00,,,0.00,vanprod-2.3,2013-04-19 15:56:00,
2013-04-19 11:01:00,29.8,25.0,29.80,North,4,6.0,7.0,82,0.00,,,0.00,vanprod-2.3,2013-04-19 16:01:00,
2013-04-19 11:06:00,29.8,24.7,29.81,NNW,346,8.0,8.0,81,0.00,,,0.00,vanprod-2.3,2013-04-19 16:06:00,
2013-04-19 11:11:00,30.1,25.0,29.81,NNW,330,7.0,8.0,81,0.00,,,0.00,vanprod-2.3,2013-04-19 16:11:00,
2013-04-19 11:16:00,30.4,25.6,29.81,NW,326,6.0,7.0,82,0.00,,,0.00,vanprod-2.3,2013-04-19 16:16:00,
2013-04-19 11:21:00,30.4,25.6,29.81,NNW,341,8.0,11.0,82,0.00,,,0.00,vanprod-2.3,2013-04-19 16:21:00,
2013-04-19 11:26:00,30.5,25.7,29.81,NNW,340,5.0,5.0,82,0.00,,,0.00,vanprod-2.3,2013-04-19 16:26:00,
2013-04-19 11:31:00,30.8,25.7,29.82,NNW,328,7.0,7.0,81,0.00,,,0.00,vanprod-2.3,2013-04-19 16:31:00,
2013-04-19 11:36:00,30.7,25.9,29.82,NNW,343,11.0,12.0,82,0.00,,,0.00,vanprod-2.3,2013-04-19 16:36:00,
2013-04-19 11:41:00,30.8,25.1,29.82,NW,323,7.0,7.0,79,0.00,,,0.00,vanprod-2.3,2013-04-19 16:41:00,
2013-04-19 11:46:00,30.8,25.7,29.82,NNW,344,11.0,11.0,81,0.00,,,0.00,vanprod-2.3,2013-04-19 16:46:00,
2013-04-19 11:51:00,31.0,26.2,29.82,NW,315,6.0,6.0,82,0.00,,,0.00,vanprod-2.3,2013-04-19 16:51:00,
2013-04-19 11:56:00,31.1,25.7,29.82,NW,316,9.0,12.0,80,0.00,,,0.00,vanprod-2.3,2013-04-19 16:56:00,
2013-04-19 12:01:00,31.3,26.2,29.82,NNW,339,8.0,8.0,81,0.00,,,0.00,vanprod-2.3,2013-04-19 17:01:00,
2013-04-19 12:06:00,31.3,26.2,29.83,North,352,8.0,17.0,81,0.00,,,0.00,vanprod-2.3,2013-04-19 17:06:00,
2013-04-19 12:11:00,31.4,26.0,29.83,NNW,340,7.0,10.0,80,0.00,,,0.00,vanprod-2.3,2013-04-19 17:11:00,
2013-04-19 12:16:00,31.6,26.2,29.83,NNW,343,9.0,15.0,80,0.00,,,0.00,vanprod-2.3,2013-04-19 17:16:00,
2013-04-19 12:21:00,31.6,25.8,29.84,NNW,342,7.0,7.0,79,0.00,,,0.00,vanprod-2.3,2013-04-19 17:21:00,
2013-04-19 12:26:00,31.3,25.2,29.84,NW,320,9.0,9.0,78,0.00,,,0.00,vanprod-2.3,2013-04-19 17:26:00,
2013-04-19 12:31:00,31.6,26.2,29.84,NW,314,7.0,7.0,80,0.00,,,0.00,vanprod-2.3,2013-04-19 17:31:00,
2013-04-19 12:36:00,31.7,25.6,29.84,North,354,9.0,9.0,78,0.00,,,0.00,vanprod-2.3,2013-04-19 17:36:00,
2013-04-19 12:41:00,31.7,25.6,29.84,NNW,331,8.0,13.0,78,0.00,,,0.00,vanprod-2.3,2013-04-19 17:41:00,
2013-04-19 12:46:00,31.9,25.8,29.84,NW,314,6.0,6.0,78,0.00,,,0.00,vanprod-2.3,2013-04-19 17:46:00,
2013-04-19 12:51:00,32.4,26.0,29.84,North,360,7.0,11.0,77,0.00,,,0.00,vanprod-2.3,2013-04-19 17:51:00,
2013-04-19 12:56:00,32.2,25.8,29.84,North,355,8.0,8.0,77,0.00,,,0.00,vanprod-2.3,2013-04-19 17:56:00,
2013-04-19 13:01:00,32.2,25.5,29.85,NNW,342,9.0,9.0,76,0.00,,,0.00,vanprod-2.3,2013-04-19 18:01:00,
2013-04-19 13:06:00,32.0,25.6,29.85,NNW,328,8.0,12.0,77,0.00,,,0.00,vanprod-2.3,2013-04-19 18:06:00,
2013-04-19 13:11:00,31.7,25.6,29.85,NNW,327,9.0,13.0,78,0.00,,,0.00,vanprod-2.3,2013-04-19 18:11:00,
2013-04-19 13:16:00,32.3,25.9,29.85,NNW,335,7.0,16.0,77,0.00,,,0.00,vanprod-2.3,2013-04-19 18:16:00,
2013-04-19 13:21:00,32.3,25.3,29.86,NW,315,8.0,12.0,75,0.00,,,0.00,vanprod-2.3,2013-04-19 18:21:00,
2013-04-19 13:26:00,32.7,25.7,29.86,NNW,337,7.0,9.0,75,0.00,,,0.00,vanprod-2.3,2013-04-19 18:26:00,
2013-04-19 13:31:00,32.3,25.0,29.86,NNW,327,11.0,13.0,74,0.00,,,0.00,vanprod-2.3,2013-04-19 18:31:00,
2013-04-19 13:36:00,32.4,25.7,29.86,NNW,343,6.0,6.0,76,0.00,,,0.00,vanprod-2.3,2013-04-19 18:36:00,
2013-04-19 13:41:00,32.6,25.9,29.86,NNW,345,6.0,7.0,76,0.00,,,0.00,vanprod-2.3,2013-04-19 18:41:00,
2013-04-19 13:46:00,32.4,26.0,29.86,North,352,7.0,13.0,77,0.00,,,0.00,vanprod-2.3,2013-04-19 18:46:00,
2013-04-19 13:51:00,31.9,24.9,29.87,NNW,346,8.0,8.0,75,0.00,,,0.00,vanprod-2.3,2013-04-19 18:51:00,
2013-04-19 13:56:00,32.0,25.6,29.87,NW,309,4.0,4.0,77,0.00,,,0.00,vanprod-2.3,2013-04-19 18:56:00,
2013-04-19 14:01:00,31.9,25.2,29.87,NW,322,9.0,9.0,76,0.00,,,0.00,vanprod-2.3,2013-04-19 19:01:00,
2013-04-19 14:06:00,31.9,24.9,29.87,NNW,342,8.0,8.0,75,0.00,,,0.00,vanprod-2.3,2013-04-19 19:06:00,
2013-04-19 14:11:00,32.0,24.0,29.87,NNW,332,12.0,12.0,72,0.00,,,0.00,vanprod-2.3,2013-04-19 19:11:00,
2013-04-19 14:16:00,32.3,25.3,29.87,NW,314,9.0,9.0,75,0.00,,,0.00,vanprod-2.3,2013-04-19 19:16:00,
2013-04-19 14:21:00,32.4,25.1,29.87,NNW,341,9.0,9.0,74,0.00,,,0.00,vanprod-2.3,2013-04-19 19:21:00,
2013-04-19 14:26:00,32.2,24.5,29.88,North,350,9.0,14.0,73,0.00,,,0.00,vanprod-2.3,2013-04-19 19:26:00,
2013-04-19 14:31:00,32.2,24.9,29.88,NNW,345,9.0,9.0,74,0.00,,,0.00,vanprod-2.3,2013-04-19 19:31:00,
2013-04-19 14:36:00,32.4,25.1,29.88,North,350,11.0,11.0,74,0.00,,,0.00,vanprod-2.3,2013-04-19 19:36:00,
2013-04-19 14:41:00,32.0,25.0,29.88,NNW,335,6.0,6.0,75,0.00,,,0.00,vanprod-2.3,2013-04-19 19:41:00,
2013-04-19 14:46:00,31.9,24.9,29.89,NW,311,9.0,9.0,75,0.00,,,0.00,vanprod-2.3,2013-04-19 19:46:00,
2013-04-19 14:51:00,32.3,24.6,29.89,NW,322,8.0,10.0,73,0.00,,,0.00,vanprod-2.3,2013-04-19 19:51:00,
2013-04-19 14:56:00,32.4,24.7,29.89,NNW,331,8.0,8.0,73,0.00,,,0.00,vanprod-2.3,2013-04-19 19:56:00,
2013-04-19 15:01:00,32.4,25.4,29.89,NNW,336,8.0,8.0,75,0.00,,,0.00,vanprod-2.3,2013-04-19 20:01:00,
2013-04-19 15:06:00,32.6,25.2,29.89,NNW,340,8.0,9.0,74,0.00,,,0.00,vanprod-2.3,2013-04-19 20:06:00,
2013-04-19 15:11:00,32.6,25.2,29.89,NW,321,8.0,11.0,74,0.00,,,0.00,vanprod-2.3,2013-04-19 20:11:00,
2013-04-19 15:16:00,33.0,24.6,29.89,NW,323,9.0,9.0,71,0.00,,,0.00,vanprod-2.3,2013-04-19 20:16:00,
2013-04-19 15:21:00,33.2,25.5,29.90,NNW,344,10.0,10.0,73,0.00,,,0.00,vanprod-2.3,2013-04-19 20:21:00,
2013-04-19 15:26:00,32.9,25.2,29.90,NW,320,8.0,8.0,73,0.00,,,0.00,vanprod-2.3,2013-04-19 20:26:00,
2013-04-19 15:31:00,32.6,24.9,29.90,NNW,338,10.0,10.0,73,0.00,,,0.00,vanprod-2.3,2013-04-19 20:31:00,
2013-04-19 15:36:00,32.9,25.2,29.90,NNW,341,7.0,9.0,73,0.00,,,0.00,vanprod-2.3,2013-04-19 20:36:00,
2013-04-19 15:41:00,32.9,24.5,29.90,NNW,332,7.0,12.0,71,0.00,,,0.00,vanprod-2.3,2013-04-19 20:41:00,
2013-04-19 15:46:00,32.9,24.9,29.90,NNW,340,9.0,14.0,72,0.00,,,0.00,vanprod-2.3,2013-04-19 20:46:00,
2013-04-19 15:51:00,32.7,24.7,29.91,NW,320,8.0,8.0,72,0.00,,,0.00,vanprod-2.3,2013-04-19 20:51:00,
2013-04-19 15:56:00,32.9,25.2,29.90,NNW,346,7.0,8.0,73,0.00,,,0.00,vanprod-2.3,2013-04-19 20:56:00,
2013-04-19 16:01:00,33.0,25.3,29.91,NNW,335,3.0,3.0,73,0.00,,,0.00,vanprod-2.3,2013-04-19 21:01:00,
2013-04-19 16:06:00,33.2,24.8,29.91,North,350,3.0,3.0,71,0.00,,,0.00,vanprod-2.3,2013-04-19 21:06:00,
2013-04-19 16:11:00,33.3,24.9,29.91,NW,316,10.0,10.0,71,0.00,,,0.00,vanprod-2.3,2013-04-19 21:11:00,
2013-04-19 16:16:00,33.6,25.6,29.91,NW,304,5.0,5.0,72,0.00,,,0.00,vanprod-2.3,2013-04-19 21:16:00,
2013-04-19 16:21:00,33.9,25.5,29.92,NW,312,5.0,8.0,71,0.00,,,0.00,vanprod-2.3,2013-04-19 21:21:00,
2013-04-19 16:26:00,33.8,25.1,29.92,NW,313,10.0,10.0,70,0.00,,,0.00,vanprod-2.3,2013-04-19 21:26:00,
2013-04-19 16:31:00,33.5,25.8,29.92,NNW,331,6.0,6.0,73,0.00,,,0.00,vanprod-2.3,2013-04-19 21:31:00,
2013-04-19 16:36:00,32.9,24.5,29.92,North,359,12.0,12.0,71,0.00,,,0.00,vanprod-2.3,2013-04-19 21:36:00,
2013-04-19 16:41:00,32.9,24.2,29.92,NNW,331,10.0,10.0,70,0.00,,,0.00,vanprod-2.3,2013-04-19 21:41:00,
2013-04-19 16:46:00,32.9,24.5,29.92,NW,325,7.0,7.0,71,0.00,,,0.00,vanprod-2.3,2013-04-19 21:46:00,
2013-04-19 16:51:00,33.3,25.3,29.92,NNW,329,7.0,11.0,72,0.00,,,0.00,vanprod-2.3,2013-04-19 21:51:00,
2013-04-19 16:56:00,33.5,24.8,29.92,NNW,333,9.0,9.0,70,0.00,,,0.00,vanprod-2.3,2013-04-19 21:56:00,
2013-04-19 17:01:00,33.6,24.9,29.92,NNW,346,8.0,14.0,70,0.00,,,0.00,vanprod-2.3,2013-04-19 22:01:00,
2013-04-19 17:06:00,33.6,24.9,29.93,NNW,341,8.0,8.0,70,0.00,,,0.00,vanprod-2.3,2013-04-19 22:06:00,
2013-04-19 17:11:00,33.8,25.1,29.93,NW,323,9.0,9.0,70,0.00,,,0.00,vanprod-2.3,2013-04-19 22:11:00,
2013-04-19 17:16:00,33.6,25.2,29.93,NW,321,5.0,11.0,71,0.00,,,0.00,vanprod-2.3,2013-04-19 22:16:00,
2013-04-19 17:21:00,33.8,25.4,29.93,NW,323,8.0,8.0,71,0.00,,,0.00,vanprod-2.3,2013-04-19 22:21:00,
2013-04-19 17:26:00,33.9,25.2,29.93,NW,318,6.0,11.0,70,0.00,,,0.00,vanprod-2.3,2013-04-19 22:26:00,
2013-04-19 17:31:00,33.9,24.8,29.93,NW,325,8.0,8.0,69,0.00,,,0.00,vanprod-2.3,2013-04-19 22:31:00,
2013-04-19 17:36:00,33.5,24.8,29.94,NNW,346,9.0,9.0,70,0.00,,,0.00,vanprod-2.3,2013-04-19 22:36:00,
2013-04-19 17:41:00,33.8,25.1,29.94,NW,320,4.0,7.0,70,0.00,,,0.00,vanprod-2.3,2013-04-19 22:41:00,
2013-04-19 17:46:00,33.9,25.5,29.95,NNW,339,5.0,5.0,71,0.00,,,0.00,vanprod-2.3,2013-04-19 22:46:00,
2013-04-19 17:51:00,34.2,24.8,29.95,NW,314,4.0,4.0,68,0.00,,,0.00,vanprod-2.3,2013-04-19 22:51:00,
2013-04-19 17:56:00,33.9,23.8,29.95,NW,312,7.0,7.0,66,0.00,,,0.00,vanprod-2.3,2013-04-19 22:56:00,
2013-04-19 18:01:00,33.8,24.0,29.95,NW,311,7.0,7.0,67,0.00,,,0.00,vanprod-2.3,2013-04-19 23:01:00,
2013-04-19 18:06:00,33.8,24.7,29.95,NNW,331,6.0,6.0,69,0.00,,,0.00,vanprod-2.3,2013-04-19 23:06:00,
2013-04-19 18:11:00,33.8,24.7,29.95,NNW,329,6.0,7.0,69,0.00,,,0.00,vanprod-2.3,2013-04-19 23:11:00,
2013-04-19 18:16:00,33.6,24.5,29.96,NNW,345,8.0,8.0,69,0.00,,,0.00,vanprod-2.3,2013-04-19 23:16:00,
2013-04-19 18:21:00,33.3,24.6,29.96,NNW,340,8.0,8.0,70,0.00,,,0.00,vanprod-2.3,2013-04-19 23:21:00,
2013-04-19 18:26:00,33.0,24.3,29.96,NW,325,9.0,9.0,70,0.00,,,0.00,vanprod-2.3,2013-04-19 23:26:00,
2013-04-19 18:31:00,32.9,24.2,29.96,NNW,333,7.0,7.0,70,0.00,,,0.00,vanprod-2.3,2013-04-19 23:31:00,
2013-04-19 18:36:00,32.7,24.0,29.96,NNW,327,6.0,6.0,70,0.00,,,0.00,vanprod-2.3,2013-04-19 23:36:00,
2013-04-19 18:41:00,32.4,22.7,29.97,NNW,343,7.0,7.0,67,0.00,,,0.00,vanprod-2.3,2013-04-19 23:41:00,
2013-04-19 18:46:00,32.3,22.2,29.97,NNW,329,10.0,13.0,66,0.00,,,0.00,vanprod-2.3,2013-04-19 23:46:00,
2013-04-19 18:51:00,32.3,22.9,29.97,NNW,342,5.0,11.0,68,0.00,,,0.00,vanprod-2.3,2013-04-19 23:51:00,
2013-04-19 18:56:00,32.2,23.2,29.97,North,358,4.0,4.0,69,0.00,,,0.00,vanprod-2.3,2013-04-19 23:56:00,
2013-04-19 19:01:00,32.2,23.9,29.97,NW,313,5.0,6.0,71,0.00,,,0.00,vanprod-2.3,2013-04-20 00:01:00,
2013-04-19 19:06:00,32.0,23.3,29.98,NW,325,7.0,7.0,70,0.00,,,0.00,vanprod-2.3,2013-04-20 00:06:00,
2013-04-19 19:11:00,32.0,23.7,29.98,North,356,5.0,6.0,71,0.00,,,0.00,vanprod-2.3,2013-04-20 00:11:00,
2013-04-19 19:16:00,31.9,23.6,29.98,NW,325,5.0,7.0,71,0.00,,,0.00,vanprod-2.3,2013-04-20 00:16:00,
2013-04-19 19:21:00,31.7,23.4,29.98,NNW,336,2.0,0.0,71,0.00,,,0.00,vanprod-2.3,2013-04-20 00:21:00,
2013-04-19 19:26:00,31.6,23.3,29.98,WNW,300,6.0,6.0,71,0.00,,,0.00,vanprod-2.3,2013-04-20 00:26:00,
2013-04-19 19:31:00,31.4,23.1,29.98,NNW,344,6.0,9.0,71,0.00,,,0.00,vanprod-2.3,2013-04-20 00:31:00,
2013-04-19 19:36:00,31.3,23.0,29.99,NW,322,6.0,6.0,71,0.00,,,0.00,vanprod-2.3,2013-04-20 00:36:00,
2013-04-19 19:41:00,31.0,22.7,29.99,North,349,5.0,5.0,71,0.00,,,0.00,vanprod-2.3,2013-04-20 00:41:00,
2013-04-19 19:46:00,30.8,22.5,29.99,North,356,6.0,6.0,71,0.00,,,0.00,vanprod-2.3,2013-04-20 00:46:00,
2013-04-19 19:51:00,30.7,22.8,29.99,NW,326,4.0,6.0,72,0.00,,,0.00,vanprod-2.3,2013-04-20 00:51:00,
2013-04-19 19:56:00,30.4,22.5,30.00,NW,315,4.0,6.0,72,0.00,,,0.00,vanprod-2.3,2013-04-20 00:56:00,
2013-04-19 20:01:00,30.2,22.3,30.00,NW,312,4.0,4.0,72,0.00,,,0.00,vanprod-2.3,2013-04-20 01:01:00,
2013-04-19 20:06:00,30.1,22.2,30.00,NW,319,5.0,5.0,72,0.00,,,0.00,vanprod-2.3,2013-04-20 01:06:00,
2013-04-19 20:11:00,29.9,22.3,30.00,North,350,2.0,0.0,73,0.00,,,0.00,vanprod-2.3,2013-04-20 01:11:00,
2013-04-19 20:16:00,29.8,22.5,30.00,NNW,348,1.0,5.0,74,0.00,,,0.00,vanprod-2.3,2013-04-20 01:16:00,
2013-04-19 20:21:00,29.6,22.3,30.01,NW,317,4.0,4.0,74,0.00,,,0.00,vanprod-2.3,2013-04-20 01:21:00,
2013-04-19 20:26:00,29.5,22.2,30.01,NW,311,4.0,4.0,74,0.00,,,0.00,vanprod-2.3,2013-04-20 01:26:00,
2013-04-19 20:31:00,29.5,22.2,30.01,NNW,333,4.0,4.0,74,0.00,,,0.00,vanprod-2.3,2013-04-20 01:31:00,
2013-04-19 20:36:00,29.3,22.1,30.01,NNW,327,5.0,5.0,74,0.00,,,0.00,vanprod-2.3,2013-04-20 01:36:00,
2013-04-19 20:41:00,29.2,22.3,30.01,NW,316,3.0,3.0,75,0.00,,,0.00,vanprod-2.3,2013-04-20 01:41:00,
2013-04-19 20:46:00,29.0,22.1,30.01,NW,305,6.0,7.0,75,0.00,,,0.00,vanprod-2.3,2013-04-20 01:46:00,
2013-04-19 20:51:00,28.9,22.0,30.02,NW,304,3.0,6.0,75,0.00,,,0.00,vanprod-2.3,2013-04-20 01:51:00,
2013-04-19 20:56:00,28.8,21.9,30.02,NW,313,3.0,3.0,75,0.00,,,0.00,vanprod-2.3,2013-04-20 01:56:00,
2013-04-19 21:01:00,28.8,21.9,30.02,NW,323,4.0,4.0,75,0.00,,,0.00,vanprod-2.3,2013-04-20 02:01:00,
2013-04-19 21:06:00,28.6,21.7,30.02,NW,323,2.0,2.0,75,0.00,,,0.00,vanprod-2.3,2013-04-20 02:06:00,
2013-04-19 21:11:00,28.3,21.4,30.03,NW,326,2.0,2.0,75,0.00,,,0.00,vanprod-2.3,2013-04-20 02:11:00,
2013-04-19 21:16:00,28.2,21.6,30.03,NW,326,3.0,3.0,76,0.00,,,0.00,vanprod-2.3,2013-04-20 02:16:00,
2013-04-19 21:21:00,28.0,21.4,30.03,NW,326,3.0,3.0,76,0.00,,,0.00,vanprod-2.3,2013-04-20 02:21:00,
2013-04-19 21:26:00,27.9,21.3,30.03,NNW,342,3.0,6.0,76,0.00,,,0.00,vanprod-2.3,2013-04-20 02:26:00,
2013-04-19 21:31:00,27.9,21.6,30.04,NNW,339,2.0,2.0,77,0.00,,,0.00,vanprod-2.3,2013-04-20 02:31:00,
2013-04-19 21:36:00,27.7,21.4,30.04,NNW,339,1.0,4.0,77,0.00,,,0.00,vanprod-2.3,2013-04-20 02:36:00,
2013-04-19 21:41:00,27.6,21.3,30.04,NNW,329,2.0,2.0,77,0.00,,,0.00,vanprod-2.3,2013-04-20 02:41:00,
2013-04-19 21:46:00,27.4,21.2,30.04,NNW,332,4.0,4.0,77,0.00,,,0.00,vanprod-2.3,2013-04-20 02:46:00,
2013-04-19 21:51:00,27.3,21.1,30.04,NW,309,1.0,2.0,77,0.00,,,0.00,vanprod-2.3,2013-04-20 02:51:00,
2013-04-19 21:56:00,27.3,21.1,30.04,WNW,301,2.0,2.0,77,0.00,,,0.00,vanprod-2.3,2013-04-20 02:56:00,
2013-04-19 22:01:00,27.3,21.1,30.05,NW,304,3.0,0.0,77,0.00,,,0.00,vanprod-2.3,2013-04-20 03:01:00,
2013-04-19 22:06:00,27.1,20.9,30.05,NNW,345,3.0,5.0,77,0.00,,,0.00,vanprod-2.3,2013-04-20 03:06:00,
2013-04-19 22:11:00,27.0,20.8,30.05,North,357,2.0,4.0,77,0.00,,,0.00,vanprod-2.3,2013-04-20 03:11:00,
2013-04-19 22:16:00,26.8,20.6,30.05,North,349,3.0,3.0,77,0.00,,,0.00,vanprod-2.3,2013-04-20 03:16:00,
2013-04-19 22:21:00,26.8,20.6,30.05,NNW,336,2.0,0.0,77,0.00,,,0.00,vanprod-2.3,2013-04-20 03:21:00,
2013-04-19 22:26:00,26.7,20.5,30.05,NNW,336,3.0,0.0,77,0.00,,,0.00,vanprod-2.3,2013-04-20 03:26:00,
2013-04-19 22:31:00,26.7,20.5,30.06,NW,325,2.0,4.0,77,0.00,,,0.00,vanprod-2.3,2013-04-20 03:31:00,
2013-04-19 22:36:00,26.5,20.3,30.06,NW,325,2.0,3.0,77,0.00,,,0.00,vanprod-2.3,2013-04-20 03:36:00,
2013-04-19 22:41:00,26.4,20.2,30.06,NNW,329,2.0,3.0,77,0.00,,,0.00,vanprod-2.3,2013-04-20 03:41:00,
2013-04-19 22:46:00,26.4,20.5,30.06,NNW,329,1.0,0.0,78,0.00,,,0.00,vanprod-2.3,2013-04-20 03:46:00,
2013-04-19 22:51:00,26.2,20.3,30.06,NNW,329,2.0,2.0,78,0.00,,,0.00,vanprod-2.3,2013-04-20 03:51:00,
2013-04-19 22:56:00,26.2,20.3,30.06,NNW,333,0.0,0.0,78,0.00,,,0.00,vanprod-2.3,2013-04-20 03:56:00,
2013-04-19 23:01:00,26.1,20.2,30.06,NNW,337,2.0,2.0,78,0.00,,,0.00,vanprod-2.3,2013-04-20 04:01:00,
2013-04-19 23:06:00,26.1,20.2,30.06,NNW,337,2.0,2.0,78,0.00,,,0.00,vanprod-2.3,2013-04-20 04:06:00,
2013-04-19 23:11:00,26.1,20.2,30.06,NNW,337,0.0,0.0,78,0.00,,,0.00,vanprod-2.3,2013-04-20 04:11:00,
2013-04-19 23:16:00,26.1,20.2,30.06,NNW,337,2.0,0.0,78,0.00,,,0.00,vanprod-2.3,2013-04-20 04:16:00,
2013-04-19 23:21:00,26.1,20.5,30.06,NNW,337,1.0,0.0,79,0.00,,,0.00,vanprod-2.3,2013-04-20 04:21:00,
2013-04-19 23:26:00,25.9,20.3,30.06,NNW,338,2.0,4.0,79,0.00,,,0.00,vanprod-2.3,2013-04-20 04:26:00,
2013-04-19 23:31:00,25.8,20.2,30.06,NNW,338,0.0,0.0,79,0.00,,,0.00,vanprod-2.3,2013-04-20 04:31:00,
2013-04-19 23:36:00,25.6,20.0,30.06,NNW,338,1.0,1.0,79,0.00,,,0.00,vanprod-2.3,2013-04-20 04:36:00,
2013-04-19 23:41:00,25.5,20.2,30.06,NNW,329,3.0,7.0,80,0.00,,,0.00,vanprod-2.3,2013-04-20 04:41:00,
2013-04-19 23:46:00,25.3,20.0,30.06,NNW,332,1.0,0.0,80,0.00,,,0.00,vanprod-2.3,2013-04-20 04:46:00,
2013-04-19 23:51:00,25.2,19.9,30.07,NNW,332,2.0,4.0,80,0.00,,,0.00,vanprod-2.3,2013-04-20 04:51:00,
2013-04-19 23:56:00,25.1,20.1,30.07,NNW,335,2.0,2.0,81,0.00,,,0.00,vanprod-2.3,2013-04-20 04:56:00,